Estación de Tranapuente INIA

Ultimos registro cada 15 minutos 61
Estación Fecha / Hora Temperatura Humedad Lluvia Velocidad Dirección Radiación Presion
61 Tranapuente INIA 10-05-2026 15:00 15,6 65,2 0 1,8 287 421 1012
60 Tranapuente INIA 10-05-2026 14:45 16 62 0 0,8 258 452 1012
59 Tranapuente INIA 10-05-2026 14:30 16,3 62,9 0 1,4 286 460 1012
58 Tranapuente INIA 10-05-2026 14:15 16,9 59,5 0 0,3 245 461 1012
57 Tranapuente INIA 10-05-2026 14:00 16,5 56,4 0 0,4 230 472 1012
56 Tranapuente INIA 10-05-2026 13:45 16,6 54,7 0 0,3 253 484 1012
55 Tranapuente INIA 10-05-2026 13:30 16,3 55,6 0 0,2 253 489 1012
54 Tranapuente INIA 10-05-2026 13:15 16 55 0 0 251 493 1013
53 Tranapuente INIA 10-05-2026 13:00 15,8 55,2 0 0,1 182 496 1013
52 Tranapuente INIA 10-05-2026 12:45 15,5 52,8 0 0 129 495 1013
51 Tranapuente INIA 10-05-2026 12:30 15 56,3 0 0,2 165 490 1013
50 Tranapuente INIA 10-05-2026 12:15 14,7 55,2 0 0,1 182 483 1013
49 Tranapuente INIA 10-05-2026 12:00 14,6 57 0 0,2 177 473 1013
48 Tranapuente INIA 10-05-2026 11:45 14,2 54,6 0 0 181 460 1013
47 Tranapuente INIA 10-05-2026 11:30 14 52,4 0 0 0 444 1014
46 Tranapuente INIA 10-05-2026 11:15 13,4 49,4 0 0 224 424 1014
45 Tranapuente INIA 10-05-2026 11:00 13,1 57,1 0 0,1 236 402 1013
44 Tranapuente INIA 10-05-2026 10:45 12 60,7 0 0,1 107 377 1014
43 Tranapuente INIA 10-05-2026 10:30 12,6 71,2 0 0,1 214 349 1014
42 Tranapuente INIA 10-05-2026 10:15 11,9 67 0 0 0 319 1014
41 Tranapuente INIA 10-05-2026 10:00 10,8 68,4 0 0 0 286 1014
40 Tranapuente INIA 10-05-2026 09:45 10,3 68,8 0 0 0 252 1014
39 Tranapuente INIA 10-05-2026 09:30 8,3 67,7 0 0 41 217 1014
38 Tranapuente INIA 10-05-2026 09:15 7,2 78,6 0 0 41 182 1014
37 Tranapuente INIA 10-05-2026 09:00 7,1 79,6 0 0 0 51 1014
36 Tranapuente INIA 10-05-2026 08:45 5,7 82,6 0 0 24 69 1014
35 Tranapuente INIA 10-05-2026 08:30 4,7 83,1 0 0 0 70 1014
34 Tranapuente INIA 10-05-2026 08:15 4 86,7 0 0 0 32 1013
33 Tranapuente INIA 10-05-2026 08:00 4,4 87,3 0 0 0 7 1013
32 Tranapuente INIA 10-05-2026 07:45 4,1 87,3 0 0 0 2 1013
31 Tranapuente INIA 10-05-2026 07:30 4,3 85,1 0 0 0 0 1013
30 Tranapuente INIA 10-05-2026 07:15 3,9 85,8 0 0 0 0 1014
29 Tranapuente INIA 10-05-2026 07:00 4,6 87,8 0 0 0 0 1014
28 Tranapuente INIA 10-05-2026 06:45 5,7 77,5 0 0 0 0 1013
27 Tranapuente INIA 10-05-2026 06:30 4,6 78 0 0 0 0 1013
26 Tranapuente INIA 10-05-2026 06:15 5,1 88,9 0 0 0 0 1014
25 Tranapuente INIA 10-05-2026 06:00 6,1 80,5 0 0 0 0 1014
24 Tranapuente INIA 10-05-2026 05:45 6 74,8 0 0 0 0 1014
23 Tranapuente INIA 10-05-2026 05:30 6,3 76,8 0 0 0 0 1014
22 Tranapuente INIA 10-05-2026 05:15 6,4 66,8 0 0 0 0 1014
21 Tranapuente INIA 10-05-2026 05:00 5,3 69,2 0 0 0 0 1014
20 Tranapuente INIA 10-05-2026 04:45 4,7 84 0 0 0 0 1014
19 Tranapuente INIA 10-05-2026 04:30 4,6 86,8 0 0 0 0 1014
18 Tranapuente INIA 10-05-2026 04:15 4,5 91,2 0 0 0 0 1014
17 Tranapuente INIA 10-05-2026 04:00 4,7 86,9 0 0 0 0 1014
16 Tranapuente INIA 10-05-2026 03:45 5,4 88,9 0 0 0 0 1014
15 Tranapuente INIA 10-05-2026 03:30 5,2 77,8 0 0 0 0 1014
14 Tranapuente INIA 10-05-2026 03:15 4,8 88 0 0 0 0 1014
13 Tranapuente INIA 10-05-2026 03:00 4,8 87,4 0 0 0 0 1014
12 Tranapuente INIA 10-05-2026 02:45 4,7 89,8 0 0 0 0 1014
11 Tranapuente INIA 10-05-2026 02:30 4,6 91,3 0 0 0 0 1014
10 Tranapuente INIA 10-05-2026 02:15 4,4 93 0 0 0 0 1015
9 Tranapuente INIA 10-05-2026 02:00 4,6 93,2 0 0 0 0 1015
8 Tranapuente INIA 10-05-2026 01:45 4,9 92,1 0 0 0 0 1015
7 Tranapuente INIA 10-05-2026 01:30 4,4 93,6 0 0 0 0 1015
6 Tranapuente INIA 10-05-2026 01:15 4,6 96,2 0 0,3 329 0 1015
5 Tranapuente INIA 10-05-2026 01:00 4,6 94,6 0 0 315 0 1015
4 Tranapuente INIA 10-05-2026 00:45 4,7 96,2 0 0 0 0 1015
3 Tranapuente INIA 10-05-2026 00:30 5,2 92,5 0 0 0 0 1015
2 Tranapuente INIA 10-05-2026 00:15 5,3 93,1 0 0 0 0 1015
1 Tranapuente INIA 10-05-2026 00:00 5,9 93,1 0 0 0 0 1015